AAL8500 KMCD-KBID

Flight info

Callsign AAL8500
Flight time 1h 39m
Altitude 41000
Route CFPWF Q917 PEPLA Q140 YODAA RUIZE
Aircraft B738/M-SDE2E3FGHIRWXY/LB1

Departure

Time 2026-05-04 15:27
Airport Mackinac Island Airport (KMCD)

Arrival

Time 2026-05-04 17:07
Airport Block Island State Airport (KBID)
Time Latitude Longitude Altitude Speed Heading
2026-05-04 15:04 45.86408 -84.63508 742 ft 0 kts 346°
2026-05-04 15:24 45.86410 -84.63509 741 ft 1 kts 346°
2026-05-04 15:25 45.86431 -84.63515 741 ft 8 kts 358°
2026-05-04 15:25 45.86485 -84.63422 741 ft 17 kts 73°
2026-05-04 15:25 45.86516 -84.63260 741 ft 15 kts 75°
2026-05-04 15:26 45.86562 -84.63049 744 ft 5 kts 32°
2026-05-04 15:26 45.86611 -84.63060 743 ft 7 kts 301°
2026-05-04 15:26 45.86601 -84.63166 742 ft 41 kts 254°
2026-05-04 15:27 45.86431 -84.64094 740 ft 145 kts 253°
2026-05-04 15:27 45.85875 -84.67162 2785 ft 164 kts 254°
2026-05-04 15:28 45.84278 -84.69479 4385 ft 195 kts 189°
2026-05-04 15:28 45.82877 -84.69251 5154 ft 217 kts 164°
2026-05-04 15:28 45.79789 -84.67757 6863 ft 256 kts 163°
2026-05-04 15:29 45.78083 -84.66859 7713 ft 276 kts 160°
2026-05-04 15:30 45.75449 -84.56250 11452 ft 349 kts 77°
2026-05-04 15:30 45.77594 -84.45437 13578 ft 403 kts 74°
2026-05-04 15:31 45.79181 -84.37616 15478 ft 419 kts 73°
2026-05-04 15:31 45.79981 -84.33592 16429 ft 425 kts 74°
2026-05-04 15:32 45.82412 -84.21191 19139 ft 441 kts 74°
2026-05-04 15:32 45.84071 -84.12691 20907 ft 450 kts 73°
2026-05-04 15:33 45.85759 -84.04013 22552 ft 459 kts 73°
2026-05-04 15:34 45.88330 -83.90720 24844 ft 471 kts 73°
2026-05-04 15:34 45.89199 -83.86205 25567 ft 475 kts 73°
2026-05-04 15:34 45.90960 -83.77027 26944 ft 484 kts 73°
2026-05-04 15:35 45.92754 -83.67622 28258 ft 494 kts 73°
2026-05-04 15:35 45.93664 -83.62839 28874 ft 499 kts 73°
2026-05-04 15:35 45.94473 -83.57991 29474 ft 505 kts 78°
2026-05-04 15:36 45.94992 -83.47859 30719 ft 517 kts 91°
2026-05-04 15:36 45.94718 -83.42776 31557 ft 514 kts 97°
2026-05-04 15:36 45.94097 -83.37708 32393 ft 512 kts 103°
2026-05-04 15:37 45.93145 -83.32775 33155 ft 510 kts 110°
2026-05-04 15:37 45.91874 -83.28038 33896 ft 508 kts 116°
2026-05-04 15:37 45.90284 -83.23495 34618 ft 507 kts 122°
2026-05-04 15:37 45.88409 -83.19241 35315 ft 504 kts 128°
2026-05-04 15:38 45.86261 -83.15290 35991 ft 502 kts 134°
2026-05-04 15:38 45.83899 -83.11734 36530 ft 498 kts 141°
2026-05-04 15:38 45.81298 -83.08502 37041 ft 494 kts 146°
2026-05-04 15:38 45.78565 -83.05538 37513 ft 493 kts 148°
2026-05-04 15:39 45.75827 -83.02612 37960 ft 494 kts 147°
2026-05-04 15:39 45.73157 -82.99483 38313 ft 496 kts 143°
2026-05-04 15:39 45.68189 -82.92579 38958 ft 499 kts 136°
2026-05-04 15:40 45.65879 -82.88920 39263 ft 499 kts 134°
2026-05-04 15:40 45.63628 -82.85145 39552 ft 499 kts 132°
2026-05-04 15:40 45.61430 -82.81313 39841 ft 499 kts 131°
2026-05-04 15:40 45.59287 -82.77489 40216 ft 498 kts 130°
2026-05-04 15:41 45.57149 -82.73624 40515 ft 498 kts 130°
2026-05-04 15:41 45.52867 -82.65836 40546 ft 496 kts 130°
2026-05-04 15:42 45.48651 -82.58181 40548 ft 492 kts 130°
2026-05-04 15:42 45.44429 -82.50558 40575 ft 493 kts 130°
2026-05-04 15:43 45.40203 -82.42963 40577 ft 491 kts 130°
2026-05-04 15:43 45.35783 -82.35482 40588 ft 490 kts 134°
2026-05-04 15:44 45.31216 -82.28403 40594 ft 489 kts 135°
2026-05-04 15:44 45.26590 -82.21348 40600 ft 489 kts 135°
2026-05-04 15:45 45.21995 -82.14314 40603 ft 489 kts 135°
2026-05-04 15:45 45.17398 -82.07237 40614 ft 489 kts 135°
2026-05-04 15:46 45.12808 -82.00152 40624 ft 489 kts 135°
2026-05-04 15:46 45.08235 -81.93097 40632 ft 489 kts 135°
2026-05-04 15:47 45.03643 -81.86021 40637 ft 489 kts 135°
2026-05-04 15:47 44.99047 -81.78959 40631 ft 489 kts 135°
2026-05-04 15:48 44.94462 -81.71931 40636 ft 489 kts 134°
2026-05-04 15:48 44.87557 -81.61381 40652 ft 489 kts 134°
2026-05-04 15:49 44.82960 -81.54380 40657 ft 489 kts 134°
2026-05-04 15:49 44.78355 -81.47385 40660 ft 489 kts 134°
2026-05-04 15:50 44.73758 -81.40421 40662 ft 489 kts 134°
2026-05-04 15:50 44.69136 -81.33434 40665 ft 488 kts 135°
2026-05-04 15:51 44.64543 -81.26508 40667 ft 487 kts 135°
2026-05-04 15:51 44.59927 -81.19558 40669 ft 488 kts 135°
2026-05-04 15:52 44.55328 -81.12650 40670 ft 488 kts 135°
2026-05-04 15:52 44.50694 -81.05707 40671 ft 488 kts 135°
2026-05-04 15:53 44.46079 -80.98809 40673 ft 488 kts 135°
2026-05-04 15:53 44.41449 -80.91905 40677 ft 487 kts 135°
2026-05-04 15:54 44.36818 -80.85018 40681 ft 487 kts 135°
2026-05-04 15:54 44.32200 -80.78168 40688 ft 487 kts 135°
2026-05-04 15:55 44.27591 -80.71345 40694 ft 487 kts 135°
2026-05-04 15:55 44.22960 -80.64510 40698 ft 486 kts 135°
2026-05-04 15:56 44.18327 -80.57687 40702 ft 486 kts 135°
2026-05-04 15:56 44.13697 -80.50886 40710 ft 486 kts 135°
2026-05-04 15:57 44.09056 -80.44086 40717 ft 485 kts 135°
2026-05-04 15:57 44.04404 -80.37285 40723 ft 485 kts 135°
2026-05-04 15:58 43.99786 -80.30550 40729 ft 485 kts 136°
2026-05-04 15:58 43.95139 -80.23787 40736 ft 484 kts 136°
2026-05-04 15:59 43.90514 -80.17077 40740 ft 484 kts 136°
2026-05-04 15:59 43.85855 -80.10332 40741 ft 484 kts 136°
2026-05-04 16:00 43.81358 -80.03435 40742 ft 486 kts 128°
2026-05-04 16:00 43.79563 -79.99499 40744 ft 488 kts 117°
2026-05-04 16:00 43.78259 -79.95200 40746 ft 489 kts 110°
2026-05-04 16:01 43.76200 -79.86252 40746 ft 489 kts 106°
2026-05-04 16:01 43.74371 -79.77249 40750 ft 489 kts 105°
2026-05-04 16:02 43.72533 -79.68238 40753 ft 488 kts 105°
2026-05-04 16:03 43.69690 -79.54792 40752 ft 489 kts 106°
2026-05-04 16:03 43.67747 -79.45824 40750 ft 489 kts 106°
2026-05-04 16:04 43.65783 -79.36848 40749 ft 489 kts 107°
2026-05-04 16:04 43.62455 -79.23631 40749 ft 489 kts 112°
2026-05-04 16:05 43.59938 -79.14920 40750 ft 489 kts 112°
2026-05-04 16:06 43.56179 -79.01940 40753 ft 489 kts 112°
2026-05-04 16:07 43.51217 -78.84573 40761 ft 489 kts 112°
2026-05-04 16:08 43.46270 -78.67229 40773 ft 489 kts 112°
2026-05-04 16:09 43.40058 -78.45557 40774 ft 489 kts 112°
2026-05-04 16:10 43.35055 -78.28239 40778 ft 489 kts 113°
2026-05-04 16:11 43.29904 -78.11050 40787 ft 488 kts 117°
2026-05-04 16:12 43.19896 -77.86949 40778 ft 487 kts 122°
2026-05-04 16:13 43.13084 -77.70923 40789 ft 488 kts 122°
2026-05-04 16:14 43.06306 -77.54923 40796 ft 488 kts 122°
2026-05-04 16:16 42.97816 -77.34942 40806 ft 488 kts 122°
2026-05-04 16:17 42.89326 -77.15040 40811 ft 488 kts 123°
2026-05-04 16:18 42.82384 -76.99225 40813 ft 488 kts 123°
2026-05-04 16:19 42.73675 -76.79513 40820 ft 488 kts 123°
2026-05-04 16:20 42.64897 -76.59884 40836 ft 488 kts 124°
2026-05-04 16:22 42.56067 -76.40263 40845 ft 488 kts 123°
2026-05-04 16:23 42.45440 -76.16801 40866 ft 488 kts 124°
2026-05-04 16:25 42.34824 -75.93368 40868 ft 488 kts 124°
2026-05-04 16:26 42.22347 -75.66246 40862 ft 488 kts 124°
2026-05-04 16:28 42.13411 -75.46873 40876 ft 488 kts 124°
2026-05-04 16:29 42.02719 -75.18461 40910 ft 492 kts 111°
2026-05-04 16:31 41.97176 -74.96779 40926 ft 492 kts 111°
2026-05-04 16:32 41.90376 -74.70941 40930 ft 490 kts 112°
2026-05-04 16:33 41.85800 -74.53786 40932 ft 490 kts 112°
2026-05-04 16:34 41.82395 -74.40964 40925 ft 489 kts 112°
2026-05-04 16:35 41.75545 -74.15355 40923 ft 488 kts 113°
2026-05-04 16:36 41.72349 -74.02424 40924 ft 491 kts 107°
2026-05-04 16:37 41.70342 -73.89032 40921 ft 492 kts 102°
2026-05-04 16:38 41.68138 -73.71010 40926 ft 492 kts 101°
2026-05-04 16:39 41.65287 -73.48539 40955 ft 493 kts 102°
2026-05-04 16:40 41.64124 -73.39607 40650 ft 489 kts 102°
2026-05-04 16:40 41.62947 -73.30648 39233 ft 494 kts 103°
2026-05-04 16:41 41.61753 -73.21618 38032 ft 494 kts 103°
2026-05-04 16:41 41.59967 -73.08213 35809 ft 492 kts 103°
2026-05-04 16:42 41.58154 -72.94735 33646 ft 496 kts 102°
2026-05-04 16:43 41.56934 -72.85731 32153 ft 495 kts 102°
2026-05-04 16:43 41.55730 -72.76884 30579 ft 480 kts 101°
2026-05-04 16:43 41.55137 -72.72547 29803 ft 474 kts 101°
2026-05-04 16:44 41.52826 -72.55776 26393 ft 450 kts 101°
2026-05-04 16:45 41.51707 -72.47729 24568 ft 437 kts 101°
2026-05-04 16:46 41.50080 -72.36110 21861 ft 419 kts 101°
2026-05-04 16:46 41.49029 -72.28649 20097 ft 407 kts 101°
2026-05-04 16:47 41.47999 -72.21372 18440 ft 392 kts 101°
2026-05-04 16:47 41.47182 -72.14329 17090 ft 386 kts 97°
2026-05-04 16:48 41.46225 -72.03889 15459 ft 370 kts 97°
2026-05-04 16:48 41.45905 -72.00481 14934 ft 375 kts 97°
2026-05-04 16:49 41.45240 -71.93640 13862 ft 367 kts 98°
2026-05-04 16:49 41.44570 -71.86989 12811 ft 364 kts 98°
2026-05-04 16:50 41.43894 -71.80338 11753 ft 359 kts 99°
2026-05-04 16:50 41.43234 -71.73863 10720 ft 351 kts 99°
2026-05-04 16:51 41.42600 -71.67628 10283 ft 326 kts 99°
2026-05-04 16:51 41.42303 -71.64713 10176 ft 311 kts 100°
2026-05-04 16:51 41.41726 -71.59149 9588 ft 302 kts 100°
2026-05-04 16:52 41.41150 -71.53664 8866 ft 298 kts 100°
2026-05-04 16:52 41.40863 -71.50943 8513 ft 296 kts 100°
2026-05-04 16:53 41.40302 -71.45573 7812 ft 292 kts 100°
2026-05-04 16:53 41.39460 -71.37609 6706 ft 290 kts 100°
2026-05-04 16:54 41.39183 -71.34965 6313 ft 290 kts 101°
2026-05-04 16:55 41.38177 -71.25280 5963 ft 238 kts 102°
2026-05-04 16:55 41.37058 -71.21563 5836 ft 199 kts 147°
2026-05-04 16:56 41.34772 -71.20491 5566 ft 164 kts 187°
2026-05-04 16:56 41.32046 -71.22066 5101 ft 135 kts 223°
2026-05-04 16:57 41.31285 -71.22795 4962 ft 133 kts 222°
2026-05-04 16:57 41.29783 -71.24208 4686 ft 132 kts 223°
2026-05-04 16:58 41.27548 -71.26325 4264 ft 131 kts 222°
2026-05-04 16:58 41.26801 -71.27023 4120 ft 130 kts 222°
2026-05-04 16:59 41.25328 -71.28409 3848 ft 129 kts 223°
2026-05-04 17:00 41.22399 -71.31175 3302 ft 128 kts 223°
2026-05-04 17:00 41.20224 -71.33222 2907 ft 126 kts 223°
2026-05-04 17:01 41.18854 -71.34631 2688 ft 122 kts 237°
2026-05-04 17:01 41.18521 -71.36751 2508 ft 121 kts 262°
2026-05-04 17:02 41.18344 -71.38968 2320 ft 120 kts 261°
2026-05-04 17:02 41.18158 -71.41165 2129 ft 118 kts 261°
2026-05-04 17:03 41.18072 -71.42268 2014 ft 120 kts 261°
2026-05-04 17:03 41.17984 -71.43375 1904 ft 124 kts 261°
2026-05-04 17:03 41.17800 -71.45602 1714 ft 117 kts 260°
2026-05-04 17:04 41.17644 -71.47613 1541 ft 99 kts 260°
2026-05-04 17:04 41.17500 -71.49429 1331 ft 102 kts 256°
2026-05-04 17:05 41.17338 -71.51360 1066 ft 108 kts 256°
2026-05-04 17:05 41.17187 -71.53290 780 ft 107 kts 257°
2026-05-04 17:06 41.17031 -71.55182 531 ft 102 kts 257°
2026-05-04 17:06 41.16948 -71.56128 338 ft 105 kts 255°
2026-05-04 17:07 41.16787 -71.58015 125 ft 77 kts 264°
2026-05-04 17:07 41.16766 -71.58255 123 ft 4 kts 282°
2026-05-04 17:07 41.16770 -71.58261 122 ft 6 kts 310°
2026-05-04 17:07 41.16874 -71.58282 121 ft 16 kts 39°
2026-05-04 17:08 41.16884 -71.58261 121 ft 0 kts 97°
2026-05-04 17:08 41.16852 -71.58093 124 ft 12 kts 85°
2026-05-04 17:08 41.16875 -71.57989 123 ft 8 kts 56°
2026-05-04 17:09 41.16898 -71.57972 123 ft 0 kts 10°